Time,TemperatureF,DewpointF,PressureIn,WindDirection,WindDirectionDegrees,WindSpeedMPH,WindSpeedGustMPH,Humidity,HourlyPrecipIn,Conditions,Clouds,dailyrainin,SoftwareType,DateUTC
2013-08-06 00:00:00,67.4,64.4,30.00,North,0,0.0,0.0,90,0.00,,---,0.00,VWS V14.01,2013-08-06 04:00:00,
2013-08-06 00:05:00,67.4,64.4,30.00,North,0,0.0,0.0,90,0.00,,---,0.00,VWS V14.01,2013-08-06 04:05:00,
2013-08-06 00:10:00,67.5,64.5,30.00,North,0,0.0,0.0,90,0.00,,---,0.00,VWS V14.01,2013-08-06 04:10:00,
2013-08-06 00:15:00,67.5,64.2,30.00,North,0,0.0,0.0,89,0.00,,---,0.00,VWS V14.01,2013-08-06 04:15:00,
2013-08-06 00:20:00,67.6,64.6,30.00,North,0,0.0,0.0,90,0.00,,---,0.00,VWS V14.01,2013-08-06 04:20:00,
2013-08-06 00:25:00,67.6,64.6,30.00,North,0,0.0,0.0,90,0.00,,---,0.00,VWS V14.01,2013-08-06 04:25:00,
2013-08-06 00:30:00,67.6,64.6,30.00,North,0,0.0,0.0,90,0.00,,---,0.00,VWS V14.01,2013-08-06 04:30:00,
2013-08-06 00:35:00,67.6,64.6,30.01,North,0,0.0,0.0,90,0.00,,---,0.00,VWS V14.01,2013-08-06 04:35:00,
2013-08-06 00:40:00,67.7,64.7,30.00,North,0,0.0,0.0,90,0.00,,---,0.00,VWS V14.01,2013-08-06 04:40:00,
2013-08-06 00:45:00,67.6,64.6,30.01,North,0,0.0,0.0,90,0.00,,---,0.00,VWS V14.01,2013-08-06 04:45:00,
2013-08-06 00:50:00,67.6,64.6,30.00,North,0,0.0,0.0,90,0.00,,---,0.00,VWS V14.01,2013-08-06 04:50:00,
2013-08-06 00:55:00,67.5,64.5,30.00,North,0,0.0,0.0,90,0.00,,---,0.00,VWS V14.01,2013-08-06 04:55:00,
2013-08-06 01:00:00,67.5,64.5,30.00,North,0,0.0,0.0,90,0.00,,---,0.00,VWS V14.01,2013-08-06 05:00:00,
2013-08-06 01:05:00,67.4,64.4,30.00,North,0,0.0,0.0,90,0.00,,---,0.00,VWS V14.01,2013-08-06 05:05:00,
2013-08-06 01:10:00,67.3,64.3,30.00,North,0,0.0,0.0,90,0.00,,---,0.00,VWS V14.01,2013-08-06 05:10:00,
2013-08-06 01:15:00,67.2,64.2,30.00,North,0,0.0,0.0,90,0.00,,---,0.00,VWS V14.01,2013-08-06 05:15:00,
2013-08-06 01:20:00,67.0,64.0,30.00,North,0,0.0,0.0,90,0.00,,---,0.00,VWS V14.01,2013-08-06 05:20:00,
2013-08-06 01:25:00,67.0,64.0,30.00,North,0,0.0,0.0,90,0.00,,---,0.00,VWS V14.01,2013-08-06 05:25:00,
2013-08-06 01:30:00,66.9,64.2,30.00,North,0,0.0,0.0,91,0.00,,---,0.00,VWS V14.01,2013-08-06 05:30:00,
2013-08-06 01:35:00,66.8,64.1,30.00,North,0,0.0,0.0,91,0.00,,---,0.00,VWS V14.01,2013-08-06 05:35:00,
2013-08-06 01:40:00,66.8,64.1,30.00,SSW,202,0.0,1.0,91,0.00,,---,0.00,VWS V14.01,2013-08-06 05:40:00,
2013-08-06 01:45:00,66.9,64.2,30.00,SSW,202,0.0,0.0,91,0.00,,---,0.00,VWS V14.01,2013-08-06 05:45:00,
2013-08-06 01:50:00,67.0,64.3,30.00,SSW,202,0.0,0.0,91,0.00,,---,0.00,VWS V14.01,2013-08-06 05:50:00,
2013-08-06 01:55:00,67.0,64.3,29.99,SSW,202,0.0,0.0,91,0.00,,---,0.00,VWS V14.01,2013-08-06 05:55:00,
2013-08-06 02:00:00,67.0,64.3,29.99,SSW,202,0.0,0.0,91,0.00,,---,0.00,VWS V14.01,2013-08-06 06:00:00,
2013-08-06 02:05:00,67.0,64.3,29.99,SSW,202,0.0,0.0,91,0.00,,---,0.00,VWS V14.01,2013-08-06 06:05:00,
2013-08-06 02:10:00,67.0,64.3,29.98,SSW,202,0.0,1.0,91,0.00,,---,0.00,VWS V14.01,2013-08-06 06:10:00,
2013-08-06 02:15:00,67.0,64.3,29.98,SSW,202,0.0,0.0,91,0.00,,---,0.00,VWS V14.01,2013-08-06 06:15:00,
2013-08-06 02:20:00,67.0,64.3,29.98,SSW,202,0.0,0.0,91,0.00,,---,0.00,VWS V14.01,2013-08-06 06:20:00,
2013-08-06 02:25:00,67.0,64.3,29.98,SSW,202,0.0,0.0,91,0.00,,---,0.00,VWS V14.01,2013-08-06 06:25:00,
2013-08-06 02:30:00,67.0,64.3,29.98,SSW,202,0.0,0.0,91,0.00,,---,0.00,VWS V14.01,2013-08-06 06:30:00,
2013-08-06 02:35:00,67.0,64.3,29.97,SSW,202,0.0,0.0,91,0.00,,---,0.00,VWS V14.01,2013-08-06 06:35:00,
2013-08-06 02:40:00,66.9,64.2,29.97,SSW,202,0.0,0.0,91,0.00,,---,0.00,VWS V14.01,2013-08-06 06:40:00,
2013-08-06 02:45:00,66.9,64.2,29.97,South,180,0.0,1.0,91,0.00,,---,0.00,VWS V14.01,2013-08-06 06:45:00,
2013-08-06 02:50:00,66.9,64.2,29.97,South,180,0.0,1.0,91,0.00,,---,0.00,VWS V14.01,2013-08-06 06:50:00,
2013-08-06 02:55:00,67.0,64.3,29.97,South,180,0.0,0.0,91,0.00,,---,0.00,VWS V14.01,2013-08-06 06:55:00,
2013-08-06 03:00:00,67.0,64.0,29.97,South,180,0.0,1.0,90,0.00,,---,0.00,VWS V14.01,2013-08-06 07:00:00,
2013-08-06 03:05:00,67.1,64.1,29.96,SSE,158,0.0,2.0,90,0.00,,---,0.00,VWS V14.01,2013-08-06 07:05:00,
2013-08-06 03:10:00,67.2,64.2,29.96,SE,135,0.0,1.0,90,0.00,,---,0.00,VWS V14.01,2013-08-06 07:10:00,
2013-08-06 03:15:00,67.3,64.3,29.96,SE,135,0.0,1.0,90,0.00,,---,0.00,VWS V14.01,2013-08-06 07:15:00,
2013-08-06 03:20:00,67.4,64.4,29.97,SE,135,0.0,0.0,90,0.00,,---,0.00,VWS V14.01,2013-08-06 07:20:00,
2013-08-06 03:25:00,67.4,64.1,29.97,SE,135,0.0,0.0,89,0.00,,---,0.00,VWS V14.01,2013-08-06 07:25:00,
2013-08-06 03:30:00,67.4,64.4,29.97,SE,135,0.0,0.0,90,0.00,,---,0.00,VWS V14.01,2013-08-06 07:30:00,
2013-08-06 03:35:00,67.4,64.4,29.97,SE,135,0.0,0.0,90,0.00,,---,0.00,VWS V14.01,2013-08-06 07:35:00,
2013-08-06 03:40:00,67.3,64.3,29.97,SE,135,0.0,0.0,90,0.00,,---,0.00,VWS V14.01,2013-08-06 07:40:00,
2013-08-06 03:45:00,67.3,64.3,29.97,SE,135,0.0,0.0,90,0.00,,---,0.00,VWS V14.01,2013-08-06 07:45:00,
2013-08-06 03:50:00,67.3,64.3,29.97,SE,135,0.0,0.0,90,0.00,,---,0.00,VWS V14.01,2013-08-06 07:50:00,
2013-08-06 03:55:00,67.3,64.6,29.97,SE,135,0.0,0.0,91,0.00,,---,0.00,VWS V14.01,2013-08-06 07:55:00,
2013-08-06 04:00:00,67.2,64.5,29.96,SE,135,0.0,0.0,91,0.00,,---,0.00,VWS V14.01,2013-08-06 08:00:00,
2013-08-06 04:05:00,67.2,64.5,29.96,SE,135,0.0,0.0,91,0.00,,---,0.00,VWS V14.01,2013-08-06 08:05:00,
2013-08-06 04:10:00,67.2,64.5,29.96,SE,135,0.0,1.0,91,0.00,,---,0.00,VWS V14.01,2013-08-06 08:10:00,
2013-08-06 04:15:00,67.2,64.5,29.96,SE,135,0.0,0.0,91,0.00,,---,0.00,VWS V14.01,2013-08-06 08:15:00,
2013-08-06 04:20:00,67.2,64.5,29.95,SE,135,0.0,0.0,91,0.00,,---,0.00,VWS V14.01,2013-08-06 08:20:00,
2013-08-06 04:25:00,67.2,64.2,29.95,South,180,0.0,1.0,90,0.00,,---,0.00,VWS V14.01,2013-08-06 08:25:00,
2013-08-06 04:30:00,67.2,64.2,29.96,South,180,0.0,0.0,90,0.00,,---,0.00,VWS V14.01,2013-08-06 08:30:00,
2013-08-06 04:35:00,67.2,64.2,29.96,South,180,0.0,0.0,90,0.00,,---,0.00,VWS V14.01,2013-08-06 08:35:00,
2013-08-06 04:40:00,67.3,64.3,29.96,South,180,0.0,1.0,90,0.00,,---,0.00,VWS V14.01,2013-08-06 08:40:00,
2013-08-06 04:45:00,67.2,64.2,29.96,South,180,0.0,0.0,90,0.00,,---,0.00,VWS V14.01,2013-08-06 08:45:00,
2013-08-06 04:50:00,67.2,64.5,29.96,South,180,0.0,0.0,91,0.00,,---,0.00,VWS V14.01,2013-08-06 08:50:00,
2013-08-06 04:55:00,67.1,64.4,29.96,South,180,0.0,0.0,91,0.00,,---,0.00,VWS V14.01,2013-08-06 08:55:00,
2013-08-06 05:00:00,67.1,64.4,29.96,South,180,0.0,0.0,91,0.00,,---,0.00,VWS V14.01,2013-08-06 09:00:00,
2013-08-06 05:05:00,67.1,64.4,29.96,South,180,0.0,0.0,91,0.00,,---,0.00,VWS V14.01,2013-08-06 09:05:00,
2013-08-06 05:10:00,67.1,64.4,29.96,South,180,0.0,0.0,91,0.00,,---,0.00,VWS V14.01,2013-08-06 09:10:00,
2013-08-06 05:15:00,67.2,64.8,29.96,South,180,0.0,0.0,92,0.00,,---,0.00,VWS V14.01,2013-08-06 09:15:00,
2013-08-06 05:20:00,67.2,64.5,29.97,South,180,0.0,0.0,91,0.00,,---,0.00,VWS V14.01,2013-08-06 09:20:00,
2013-08-06 05:25:00,67.2,64.5,29.97,South,180,0.0,0.0,91,0.00,,---,0.00,VWS V14.01,2013-08-06 09:25:00,
2013-08-06 05:30:00,67.4,64.7,29.97,SSW,202,0.0,2.0,91,0.00,,---,0.00,VWS V14.01,2013-08-06 09:30:00,
2013-08-06 05:35:00,67.7,65.0,29.97,SSW,202,0.0,1.0,91,0.00,,---,0.00,VWS V14.01,2013-08-06 09:35:00,
2013-08-06 05:40:00,67.9,64.9,29.97,SSW,202,0.0,1.0,90,0.00,,---,0.00,VWS V14.01,2013-08-06 09:40:00,
2013-08-06 05:45:00,68.2,64.8,29.97,SSW,202,1.0,5.0,89,0.00,,---,0.00,VWS V14.01,2013-08-06 09:45:00,
2013-08-06 05:50:00,68.7,65.3,29.97,SSW,202,2.0,7.0,89,0.00,,---,0.00,VWS V14.01,2013-08-06 09:50:00,
2013-08-06 05:55:00,68.8,65.4,29.97,SE,135,3.0,7.0,89,0.02,,---,0.02,VWS V14.01,2013-08-06 09:55:00,
2013-08-06 06:00:00,68.4,65.4,29.97,SSE,158,1.0,4.0,90,0.02,,---,0.02,VWS V14.01,2013-08-06 10:00:00,
2013-08-06 06:05:00,68.2,65.2,29.97,WSW,248,0.0,2.0,90,0.02,,---,0.02,VWS V14.01,2013-08-06 10:05:00,
2013-08-06 06:10:00,68.1,65.4,29.97,SSE,158,0.0,4.0,91,0.02,,---,0.02,VWS V14.01,2013-08-06 10:10:00,
2013-08-06 06:15:00,68.0,65.3,29.97,SSE,158,0.0,3.0,91,0.02,,---,0.02,VWS V14.01,2013-08-06 10:15:00,
2013-08-06 06:20:00,67.9,65.2,29.97,SSW,202,1.0,4.0,91,0.02,,---,0.02,VWS V14.01,2013-08-06 10:20:00,
2013-08-06 06:25:00,67.9,65.2,29.97,South,180,1.0,6.0,91,0.02,,---,0.02,VWS V14.01,2013-08-06 10:25:00,
2013-08-06 06:30:00,67.9,65.2,29.97,SSE,158,1.0,5.0,91,0.02,,---,0.02,VWS V14.01,2013-08-06 10:30:00,
2013-08-06 06:35:00,67.9,65.5,29.97,SSE,158,0.0,1.0,92,0.02,,---,0.02,VWS V14.01,2013-08-06 10:35:00,
2013-08-06 06:40:00,67.9,65.5,29.97,ESE,112,0.0,2.0,92,0.02,,---,0.02,VWS V14.01,2013-08-06 10:40:00,
2013-08-06 06:45:00,67.8,65.4,29.98,SSE,158,0.0,4.0,92,0.02,,---,0.02,VWS V14.01,2013-08-06 10:45:00,
2013-08-06 06:50:00,67.7,65.3,29.98,SSE,158,0.0,1.0,92,0.02,,---,0.02,VWS V14.01,2013-08-06 10:50:00,
2013-08-06 06:55:00,67.7,65.3,29.98,South,180,1.0,5.0,92,0.02,,---,0.02,VWS V14.01,2013-08-06 10:55:00,
2013-08-06 07:00:00,67.7,65.3,29.98,South,180,1.0,6.0,92,0.00,,---,0.02,VWS V14.01,2013-08-06 11:00:00,
2013-08-06 07:05:00,67.7,65.3,29.98,South,180,0.0,4.0,92,0.00,,---,0.02,VWS V14.01,2013-08-06 11:05:00,
2013-08-06 07:10:00,67.7,65.3,29.98,South,180,0.0,1.0,92,0.00,,---,0.02,VWS V14.01,2013-08-06 11:10:00,
2013-08-06 07:15:00,67.6,65.2,29.98,South,180,0.0,5.0,92,0.00,,---,0.02,VWS V14.01,2013-08-06 11:15:00,
2013-08-06 07:20:00,67.6,65.2,29.98,SSE,158,1.0,4.0,92,0.00,,---,0.02,VWS V14.01,2013-08-06 11:20:00,
2013-08-06 07:25:00,67.6,65.2,29.99,South,180,1.0,4.0,92,0.00,,---,0.02,VWS V14.01,2013-08-06 11:25:00,
2013-08-06 07:30:00,67.7,65.3,29.99,SSW,202,0.0,2.0,92,0.00,,---,0.02,VWS V14.01,2013-08-06 11:30:00,
2013-08-06 07:35:00,67.7,65.3,29.99,South,180,0.0,3.0,92,0.00,,---,0.02,VWS V14.01,2013-08-06 11:35:00,
2013-08-06 07:40:00,67.7,65.3,29.99,WSW,248,0.0,3.0,92,0.00,,---,0.02,VWS V14.01,2013-08-06 11:40:00,
2013-08-06 07:45:00,67.7,65.3,30.00,SSW,202,0.0,2.0,92,0.00,,---,0.02,VWS V14.01,2013-08-06 11:45:00,
2013-08-06 07:50:00,67.7,65.3,30.00,SSW,202,1.0,5.0,92,0.00,,---,0.02,VWS V14.01,2013-08-06 11:50:00,
2013-08-06 07:55:00,67.7,65.0,30.00,SSW,202,2.0,7.0,91,0.00,,---,0.02,VWS V14.01,2013-08-06 11:55:00,
2013-08-06 08:00:00,67.7,65.0,30.00,South,180,1.0,4.0,91,0.00,,---,0.02,VWS V14.01,2013-08-06 12:00:00,
2013-08-06 08:05:00,67.7,65.0,30.00,SW,225,1.0,5.0,91,0.00,,---,0.02,VWS V14.01,2013-08-06 12:05:00,
2013-08-06 08:10:00,67.8,65.1,30.01,SSW,202,0.0,4.0,91,0.00,,---,0.02,VWS V14.01,2013-08-06 12:10:00,
2013-08-06 08:15:00,67.7,65.0,30.01,South,180,1.0,5.0,91,0.00,,---,0.02,VWS V14.01,2013-08-06 12:15:00,
2013-08-06 08:20:00,67.7,65.0,30.01,South,180,1.0,4.0,91,0.00,,---,0.02,VWS V14.01,2013-08-06 12:20:00,
2013-08-06 08:25:00,67.7,65.0,30.01,SSE,158,1.0,4.0,91,0.00,,---,0.02,VWS V14.01,2013-08-06 12:25:00,
2013-08-06 08:30:00,67.8,65.1,30.00,SSW,202,1.0,4.0,91,0.00,,---,0.02,VWS V14.01,2013-08-06 12:30:00,
2013-08-06 08:35:00,67.9,65.2,30.00,SSW,202,1.0,4.0,91,0.00,,---,0.02,VWS V14.01,2013-08-06 12:35:00,
2013-08-06 08:40:00,67.9,65.2,30.00,SSE,158,1.0,5.0,91,0.00,,---,0.02,VWS V14.01,2013-08-06 12:40:00,
2013-08-06 08:45:00,68.0,65.3,30.01,SSW,202,1.0,4.0,91,0.00,,---,0.02,VWS V14.01,2013-08-06 12:45:00,
2013-08-06 08:50:00,68.1,65.4,30.01,SSW,202,0.0,2.0,91,0.00,,---,0.02,VWS V14.01,2013-08-06 12:50:00,
2013-08-06 08:55:00,68.2,65.2,30.01,SSW,202,1.0,5.0,90,0.00,,---,0.02,VWS V14.01,2013-08-06 12:55:00,
2013-08-06 09:00:00,68.3,65.6,30.01,SSE,158,0.0,1.0,91,0.00,,---,0.02,VWS V14.01,2013-08-06 13:00:00,
2013-08-06 09:05:00,68.4,65.7,30.01,SSE,158,0.0,1.0,91,0.00,,---,0.02,VWS V14.01,2013-08-06 13:05:00,
2013-08-06 09:10:00,68.4,65.4,30.01,South,180,1.0,4.0,90,0.00,,---,0.02,VWS V14.01,2013-08-06 13:10:00,
2013-08-06 09:15:00,68.5,65.8,30.01,South,180,1.0,3.0,91,0.00,,---,0.02,VWS V14.01,2013-08-06 13:15:00,
2013-08-06 09:20:00,68.6,65.9,30.00,SSE,158,0.0,2.0,91,0.00,,---,0.02,VWS V14.01,2013-08-06 13:20:00,
2013-08-06 09:25:00,69.0,65.9,30.00,South,180,1.0,7.0,90,0.00,,---,0.02,VWS V14.01,2013-08-06 13:25:00,
2013-08-06 09:30:00,69.3,65.9,30.01,SSE,158,1.0,3.0,89,0.00,,---,0.02,VWS V14.01,2013-08-06 13:30:00,
2013-08-06 09:35:00,69.4,66.0,30.01,SSW,202,1.0,4.0,89,0.00,,---,0.02,VWS V14.01,2013-08-06 13:35:00,
2013-08-06 09:40:00,69.5,65.8,30.01,SSE,158,1.0,3.0,88,0.00,,---,0.02,VWS V14.01,2013-08-06 13:40:00,
2013-08-06 09:45:00,70.0,66.6,30.01,SSW,202,1.0,7.0,89,0.00,,---,0.02,VWS V14.01,2013-08-06 13:45:00,
2013-08-06 09:50:00,70.3,65.9,30.01,South,180,1.0,4.0,86,0.00,,---,0.02,VWS V14.01,2013-08-06 13:50:00,
2013-08-06 09:55:00,70.5,66.1,30.01,SSW,202,0.0,3.0,86,0.00,,---,0.02,VWS V14.01,2013-08-06 13:55:00,
2013-08-06 10:00:00,70.6,66.2,30.01,South,180,0.0,3.0,86,0.00,,---,0.02,VWS V14.01,2013-08-06 14:00:00,
2013-08-06 10:05:00,70.6,66.2,30.01,SSE,158,1.0,5.0,86,0.00,,---,0.02,VWS V14.01,2013-08-06 14:05:00,
2013-08-06 10:10:00,70.6,65.9,30.01,SSE,158,1.0,7.0,85,0.00,,---,0.02,VWS V14.01,2013-08-06 14:10:00,
2013-08-06 10:15:00,70.8,66.4,30.01,SSW,202,1.0,3.0,86,0.00,,---,0.02,VWS V14.01,2013-08-06 14:15:00,
2013-08-06 10:20:00,71.1,66.4,30.01,SSE,158,1.0,6.0,85,0.00,,---,0.02,VWS V14.01,2013-08-06 14:20:00,
2013-08-06 10:30:00,71.5,66.8,30.01,WSW,249,0.0,1.0,85,0.81,,---,0.02,VWS V14.01,2013-08-06 14:30:00,
2013-08-06 10:31:00,71.1,66.4,30.01,SSE,158,1.0,6.0,85,0.00,,---,0.02,VWS V14.01,2013-08-06 14:31:00,
2013-08-06 10:36:00,71.6,66.2,30.01,SSE,157,2.0,3.0,83,0.81,,---,0.02,VWS V14.01,2013-08-06 14:36:00,
2013-08-06 10:41:00,71.7,66.6,30.01,South,176,1.0,3.0,84,0.81,,---,0.02,VWS V14.01,2013-08-06 14:41:00,
2013-08-06 10:46:00,71.9,66.5,30.01,South,172,0.0,0.0,83,0.81,,---,0.02,VWS V14.01,2013-08-06 14:46:00,
2013-08-06 10:51:00,72.2,67.4,30.01,SW,217,1.0,1.0,85,0.81,,---,0.02,VWS V14.01,2013-08-06 14:51:00,
2013-08-06 10:56:00,72.2,66.8,30.01,SSE,151,4.0,4.0,83,0.81,,---,0.02,VWS V14.01,2013-08-06 14:56:00,
2013-08-06 11:01:00,72.1,67.0,30.01,South,185,0.0,0.0,84,0.81,,---,0.02,VWS V14.01,2013-08-06 15:01:00,
2013-08-06 11:06:00,72.6,67.5,30.01,SSW,200,0.0,0.0,84,0.81,,---,0.02,VWS V14.01,2013-08-06 15:06:00,
2013-08-06 11:11:00,73.0,67.9,30.01,ENE,71,0.0,0.0,84,0.81,,---,0.02,VWS V14.01,2013-08-06 15:11:00,
2013-08-06 11:16:00,73.2,68.1,30.01,SW,220,1.0,2.0,84,0.81,,---,0.02,VWS V14.01,2013-08-06 15:16:00,
2013-08-06 11:21:00,73.4,68.6,30.01,SW,217,1.0,1.0,85,0.81,,---,0.02,VWS V14.01,2013-08-06 15:21:00,
2013-08-06 11:26:00,73.6,68.1,30.01,West,268,0.0,0.0,83,0.00,,---,0.02,VWS V14.01,2013-08-06 15:26:00,
2013-08-06 11:31:00,73.6,68.1,30.01,South,175,2.0,2.0,83,0.00,,---,0.02,VWS V14.01,2013-08-06 15:31:00,
2013-08-06 11:36:00,73.3,68.2,30.01,SSE,148,3.0,3.0,84,0.00,,---,0.02,VWS V14.01,2013-08-06 15:36:00,
2013-08-06 11:41:00,73.5,68.4,30.01,WNW,284,0.0,0.0,84,0.00,,---,0.02,VWS V14.01,2013-08-06 15:41:00,
2013-08-06 11:46:00,73.8,68.0,30.01,South,184,1.0,1.0,82,0.00,,---,0.02,VWS V14.01,2013-08-06 15:46:00,
2013-08-06 11:51:00,74.6,69.1,30.01,SSW,213,1.0,1.0,83,0.00,,---,0.02,VWS V14.01,2013-08-06 15:51:00,
2013-08-06 11:56:00,74.6,68.0,30.01,NW,313,2.0,2.0,80,0.00,,---,0.02,VWS V14.01,2013-08-06 15:56:00,
2013-08-06 12:01:00,74.7,68.5,30.01,SSE,167,0.0,0.0,81,0.00,,---,0.02,VWS V14.01,2013-08-06 16:01:00,
2013-08-06 12:06:00,76.0,70.1,30.01,SE,130,0.0,0.0,82,0.00,,---,0.02,VWS V14.01,2013-08-06 16:06:00,
2013-08-06 12:11:00,76.7,68.6,30.01,WSW,245,0.0,0.0,76,0.00,,---,0.02,VWS V14.01,2013-08-06 16:11:00,
2013-08-06 12:16:00,75.9,68.6,30.01,South,175,0.0,1.0,78,0.00,,---,0.02,VWS V14.01,2013-08-06 16:16:00,
2013-08-06 12:21:00,75.7,68.7,30.01,SW,226,0.0,0.0,79,0.00,,---,0.02,VWS V14.01,2013-08-06 16:21:00,
2013-08-06 12:26:00,75.7,68.4,30.01,South,173,0.0,1.0,78,0.00,,---,0.02,VWS V14.01,2013-08-06 16:26:00,
2013-08-06 12:31:00,75.9,70.0,30.01,SSW,211,0.0,0.0,82,0.00,,---,0.02,VWS V14.01,2013-08-06 16:31:00,
2013-08-06 12:36:00,76.0,68.7,30.01,WSW,243,0.0,0.0,78,0.00,,---,0.02,VWS V14.01,2013-08-06 16:36:00,
2013-08-06 12:41:00,76.1,68.8,30.01,WSW,243,0.0,0.0,78,0.00,,---,0.02,VWS V14.01,2013-08-06 16:41:00,
2013-08-06 12:46:00,76.0,68.7,30.01,WSW,243,0.0,0.0,78,0.00,,---,0.02,VWS V14.01,2013-08-06 16:46:00,
2013-08-06 12:51:00,75.9,69.3,30.01,WSW,243,0.0,0.0,80,0.00,,---,0.02,VWS V14.01,2013-08-06 16:51:00,
2013-08-06 12:56:00,75.7,69.5,30.01,WSW,243,0.0,0.0,81,0.00,,---,0.02,VWS V14.01,2013-08-06 16:56:00,
2013-08-06 13:01:00,75.6,69.0,30.01,WSW,243,0.0,0.0,80,0.00,,---,0.02,VWS V14.01,2013-08-06 17:01:00,
2013-08-06 13:06:00,75.9,69.3,30.01,WSW,243,0.0,0.0,80,0.00,,---,0.02,VWS V14.01,2013-08-06 17:06:00,
2013-08-06 13:11:00,76.1,69.5,30.01,WSW,243,0.0,0.0,80,0.00,,---,0.02,VWS V14.01,2013-08-06 17:11:00,
2013-08-06 13:16:00,76.2,69.9,30.01,WSW,243,0.0,0.0,81,0.00,,---,0.02,VWS V14.01,2013-08-06 17:16:00,
2013-08-06 13:21:00,76.1,69.5,30.01,WSW,250,0.0,0.0,80,0.00,,---,0.02,VWS V14.01,2013-08-06 17:21:00,
2013-08-06 13:26:00,76.4,69.8,30.01,WSW,250,0.0,0.0,80,0.00,,---,0.02,VWS V14.01,2013-08-06 17:26:00,
2013-08-06 13:27:00,76.4,70.5,30.01,WSW,249,1.0,1.0,82,0.00,,---,0.02,VWS V14.01,2013-08-06 17:27:00,
2013-08-06 13:32:00,76.4,70.5,30.01,WSW,238,1.0,1.0,82,0.00,,---,0.02,VWS V14.01,2013-08-06 17:32:00,
2013-08-06 13:37:00,76.2,69.9,30.01,ESE,123,0.0,0.0,81,0.00,,---,0.02,VWS V14.01,2013-08-06 17:37:00,
2013-08-06 13:42:00,76.4,69.8,30.01,ESE,123,0.0,1.0,80,0.00,,---,0.02,VWS V14.01,2013-08-06 17:42:00,
2013-08-06 13:47:00,76.8,69.4,30.01,ESE,106,0.0,0.0,78,0.00,,---,0.02,VWS V14.01,2013-08-06 17:47:00,
2013-08-06 13:52:00,77.2,70.2,30.01,SSE,155,0.0,2.0,79,0.00,,---,0.02,VWS V14.01,2013-08-06 17:52:00,
2013-08-06 13:53:00,77.2,70.2,30.01,SSE,155,0.0,2.0,79,0.00,,---,0.02,VWS V14.01,2013-08-06 17:53:00,
2013-08-06 13:58:00,77.3,69.2,30.01,South,181,0.0,4.0,76,0.00,,---,0.02,VWS V14.01,2013-08-06 17:58:00,
2013-08-06 14:03:00,77.8,70.0,30.01,South,181,2.0,2.0,77,0.00,,---,0.02,VWS V14.01,2013-08-06 18:03:00,
2013-08-06 14:08:00,77.6,70.2,30.01,South,186,0.0,4.0,78,0.00,,---,0.02,VWS V14.01,2013-08-06 18:08:00,
2013-08-06 14:13:00,77.8,70.0,30.01,South,186,0.0,0.0,77,0.00,,---,0.02,VWS V14.01,2013-08-06 18:13:00,
2013-08-06 14:17:00,78.2,70.4,30.01,SW,227,0.0,0.0,77,0.00,,---,0.02,VWS V14.01,2013-08-06 18:17:00,
2013-08-06 14:23:00,78.3,70.1,30.01,SSE,158,0.0,2.0,76,0.00,,---,0.02,VWS V14.01,2013-08-06 18:23:00,
2013-08-06 14:28:00,78.2,71.5,30.01,SE,125,0.0,1.0,80,0.00,,---,0.02,VWS V14.01,2013-08-06 18:28:00,
2013-08-06 14:33:00,78.1,69.5,30.01,SE,125,0.0,0.0,75,0.00,,---,0.02,VWS V14.01,2013-08-06 18:33:00,
2013-08-06 14:38:00,77.8,70.0,30.00,South,175,0.0,0.0,77,0.00,,---,0.02,VWS V14.01,2013-08-06 18:38:00,
2013-08-06 14:43:00,78.3,71.6,30.00,South,182,3.0,3.0,80,0.00,,---,0.02,VWS V14.01,2013-08-06 18:43:00,
2013-08-06 14:48:00,79.5,70.5,30.00,SE,145,0.0,2.0,74,0.00,,---,0.02,VWS V14.01,2013-08-06 18:48:00,
2013-08-06 14:53:00,79.7,69.9,30.00,SSW,213,6.0,6.0,72,0.00,,---,0.02,VWS V14.01,2013-08-06 18:53:00,
2013-08-06 14:58:00,78.5,69.1,30.00,South,189,4.0,5.0,73,0.00,,---,0.02,VWS V14.01,2013-08-06 18:58:00,
2013-08-06 15:03:00,78.8,71.0,30.00,SSE,149,0.0,1.0,77,0.00,,---,0.02,VWS V14.01,2013-08-06 19:03:00,
2013-08-06 15:08:00,79.0,70.4,30.00,SW,231,0.0,2.0,75,0.00,,---,0.02,VWS V14.01,2013-08-06 19:08:00,
2013-08-06 15:13:00,79.3,70.7,30.00,ESE,119,0.0,5.0,75,0.00,,---,0.02,VWS V14.01,2013-08-06 19:13:00,
2013-08-06 15:18:00,79.2,70.6,30.00,SSW,193,2.0,2.0,75,0.00,,---,0.02,VWS V14.01,2013-08-06 19:18:00,
2013-08-06 15:23:00,79.2,70.6,30.00,SSE,162,0.0,3.0,75,0.00,,---,0.02,VWS V14.01,2013-08-06 19:23:00,
2013-08-06 15:28:00,79.2,70.6,30.00,NW,308,2.0,2.0,75,0.00,,---,0.02,VWS V14.01,2013-08-06 19:28:00,
2013-08-06 15:33:00,78.8,69.4,29.99,South,179,0.0,3.0,73,0.00,,---,0.02,VWS V14.01,2013-08-06 19:33:00,
2013-08-06 15:38:00,78.8,69.8,29.99,South,179,1.0,5.0,74,0.00,,---,0.02,VWS V14.01,2013-08-06 19:38:00,
2013-08-06 15:43:00,79.3,71.1,29.99,South,182,3.0,3.0,76,0.00,,---,0.02,VWS V14.01,2013-08-06 19:43:00,
2013-08-06 15:48:00,79.7,71.9,29.99,SW,221,0.0,2.0,77,0.00,,---,0.02,VWS V14.01,2013-08-06 19:48:00,
2013-08-06 15:53:00,80.3,70.9,29.99,SW,215,2.0,2.0,73,0.00,,---,0.02,VWS V14.01,2013-08-06 19:53:00,
2013-08-06 15:58:00,80.4,70.6,29.99,SE,134,0.0,2.0,72,0.00,,---,0.02,VWS V14.01,2013-08-06 19:58:00,
2013-08-06 16:03:00,80.2,70.4,29.99,SW,230,0.0,5.0,72,0.00,,---,0.02,VWS V14.01,2013-08-06 20:03:00,
2013-08-06 16:08:00,80.3,70.1,29.99,SSW,207,0.0,4.0,71,0.00,,---,0.02,VWS V14.01,2013-08-06 20:08:00,
2013-08-06 16:13:00,80.0,70.6,29.99,SW,216,1.0,1.0,73,0.00,,---,0.02,VWS V14.01,2013-08-06 20:13:00,
2013-08-06 16:18:00,79.1,70.1,29.99,SSE,163,0.0,3.0,74,0.00,,---,0.02,VWS V14.01,2013-08-06 20:18:00,
2013-08-06 16:23:00,78.3,70.1,29.99,SSE,161,1.0,3.0,76,0.00,,---,0.02,VWS V14.01,2013-08-06 20:23:00,
2013-08-06 16:28:00,78.1,69.9,29.99,South,191,0.0,0.0,76,0.00,,---,0.02,VWS V14.01,2013-08-06 20:28:00,
2013-08-06 16:32:00,79.2,71.4,29.99,South,191,0.0,0.0,77,0.00,,---,0.02,VWS V14.01,2013-08-06 20:32:00,
2013-08-06 16:37:00,80.3,71.7,29.99,SW,216,6.0,6.0,75,0.00,,---,0.02,VWS V14.01,2013-08-06 20:37:00,
2013-08-06 16:42:00,80.8,70.9,29.99,ENE,78,0.0,2.0,72,0.00,,---,0.02,VWS V14.01,2013-08-06 20:42:00,
2013-08-06 16:47:00,81.2,70.5,29.99,SSE,149,1.0,2.0,70,0.00,,---,0.02,VWS V14.01,2013-08-06 20:47:00,
2013-08-06 16:52:00,80.8,70.1,29.99,SE,146,0.0,3.0,70,0.00,,---,0.02,VWS V14.01,2013-08-06 20:52:00,
2013-08-06 16:57:00,80.6,71.2,29.99,SSE,148,0.0,2.0,73,0.00,,---,0.02,VWS V14.01,2013-08-06 20:57:00,
2013-08-06 17:02:00,79.8,70.4,29.99,SSE,150,2.0,2.0,73,0.00,,---,0.02,VWS V14.01,2013-08-06 21:02:00,
2013-08-06 17:07:00,79.4,70.8,29.99,SSE,156,1.0,1.0,75,0.00,,---,0.02,VWS V14.01,2013-08-06 21:07:00,
2013-08-06 17:12:00,79.3,71.8,29.99,SSW,210,2.0,2.0,78,0.00,,---,0.02,VWS V14.01,2013-08-06 21:12:00,
2013-08-06 17:17:00,80.0,71.0,29.99,SSW,210,6.0,6.0,74,0.00,,---,0.02,VWS V14.01,2013-08-06 21:17:00,
2013-08-06 17:22:00,79.6,71.0,29.99,SE,136,0.0,3.0,75,0.00,,---,0.02,VWS V14.01,2013-08-06 21:22:00,
2013-08-06 17:27:00,80.2,71.2,29.99,SSE,153,0.0,0.0,74,0.00,,---,0.02,VWS V14.01,2013-08-06 21:27:00,
2013-08-06 17:32:00,80.4,71.4,29.99,East,82,0.0,2.0,74,0.00,,---,0.02,VWS V14.01,2013-08-06 21:32:00,
2013-08-06 17:37:00,80.2,71.2,29.99,East,82,0.0,1.0,74,0.00,,---,0.02,VWS V14.01,2013-08-06 21:37:00,
2013-08-06 17:42:00,79.7,72.6,29.99,SW,227,1.0,1.0,79,0.00,,---,0.02,VWS V14.01,2013-08-06 21:42:00,
2013-08-06 17:47:00,79.3,71.5,29.99,NW,304,0.0,1.0,77,0.00,,---,0.02,VWS V14.01,2013-08-06 21:47:00,
2013-08-06 17:52:00,79.5,72.0,29.98,SW,216,2.0,2.0,78,0.00,,---,0.02,VWS V14.01,2013-08-06 21:52:00,
2013-08-06 17:57:00,79.2,71.8,29.98,SW,215,0.0,0.0,78,0.00,,---,0.02,VWS V14.01,2013-08-06 21:57:00,
2013-08-06 18:02:00,79.0,72.3,29.98,SW,215,0.0,0.0,80,0.00,,---,0.02,VWS V14.01,2013-08-06 22:02:00,
2013-08-06 18:07:00,79.1,72.0,29.98,SE,125,0.0,0.0,79,0.00,,---,0.02,VWS V14.01,2013-08-06 22:07:00,
2013-08-06 18:12:00,79.0,71.9,29.98,ESE,108,0.0,1.0,79,0.00,,---,0.02,VWS V14.01,2013-08-06 22:12:00,
2013-08-06 18:17:00,78.7,72.0,29.98,SE,144,0.0,1.0,80,0.00,,---,0.02,VWS V14.01,2013-08-06 22:17:00,
2013-08-06 18:23:00,78.3,71.6,29.98,SW,236,0.0,1.0,80,0.00,,---,0.02,VWS V14.01,2013-08-06 22:23:00,
2013-08-06 18:28:00,77.9,71.2,29.98,SSE,155,0.0,2.0,80,0.00,,---,0.02,VWS V14.01,2013-08-06 22:28:00,
2013-08-06 18:33:00,77.8,71.5,29.98,SSE,166,0.0,0.0,81,0.00,,---,0.02,VWS V14.01,2013-08-06 22:33:00,
2013-08-06 18:38:00,77.6,71.3,29.98,SE,142,0.0,1.0,81,0.00,,---,0.02,VWS V14.01,2013-08-06 22:38:00,
2013-08-06 18:43:00,77.5,71.6,29.98,SE,142,0.0,0.0,82,0.00,,---,0.02,VWS V14.01,2013-08-06 22:43:00,
2013-08-06 18:47:00,77.5,71.9,29.98,SE,142,0.0,0.0,83,0.00,,---,0.02,VWS V14.01,2013-08-06 22:47:00,
2013-08-06 18:52:00,77.4,71.8,29.98,SE,142,0.0,0.0,83,0.00,,---,0.02,VWS V14.01,2013-08-06 22:52:00,
2013-08-06 18:58:00,77.4,71.5,29.99,ESE,115,0.0,1.0,82,0.00,,---,0.02,VWS V14.01,2013-08-06 22:58:00,
2013-08-06 19:03:00,77.4,71.8,29.99,ESE,115,0.0,0.0,83,0.00,,---,0.02,VWS V14.01,2013-08-06 23:03:00,
2013-08-06 19:08:00,77.4,71.8,29.99,ESE,115,0.0,0.0,83,0.00,,---,0.02,VWS V14.01,2013-08-06 23:08:00,
2013-08-06 19:13:00,77.4,71.8,29.99,ESE,115,0.0,0.0,83,0.00,,---,0.02,VWS V14.01,2013-08-06 23:13:00,
2013-08-06 19:18:00,77.4,71.8,29.99,SE,132,0.0,0.0,83,0.00,,---,0.02,VWS V14.01,2013-08-06 23:18:00,
2013-08-06 19:23:00,77.3,71.7,29.99,SE,132,0.0,0.0,83,0.00,,---,0.02,VWS V14.01,2013-08-06 23:23:00,
2013-08-06 19:28:00,77.1,71.9,29.99,SE,132,0.0,0.0,84,0.00,,---,0.02,VWS V14.01,2013-08-06 23:28:00,
2013-08-06 19:33:00,77.0,71.8,29.99,SE,131,0.0,0.0,84,0.00,,---,0.02,VWS V14.01,2013-08-06 23:33:00,
2013-08-06 19:38:00,76.8,71.6,29.99,SE,132,0.0,0.0,84,0.00,,---,0.02,VWS V14.01,2013-08-06 23:38:00,
2013-08-06 19:43:00,76.6,71.8,29.99,SE,132,0.0,0.0,85,0.01,,---,0.03,VWS V14.01,2013-08-06 23:43:00,
2013-08-06 19:48:00,76.3,72.2,29.99,SE,131,0.0,0.0,87,0.01,,---,0.03,VWS V14.01,2013-08-06 23:48:00,
2013-08-06 19:53:00,76.0,71.5,29.99,SSE,160,1.0,4.0,86,0.01,,---,0.03,VWS V14.01,2013-08-06 23:53:00,
2013-08-06 19:58:00,75.6,71.5,30.00,SSE,158,0.0,0.0,87,0.01,,---,0.03,VWS V14.01,2013-08-06 23:58:00,
2013-08-06 20:03:00,75.3,71.5,30.00,SSE,159,0.0,0.0,88,0.01,,---,0.03,VWS V14.01,2013-08-07 00:03:00,
2013-08-06 20:08:00,75.0,71.2,30.00,SE,134,0.0,2.0,88,0.01,,---,0.03,VWS V14.01,2013-08-07 00:08:00,
2013-08-06 20:13:00,74.7,70.9,30.00,ESE,103,0.0,1.0,88,0.01,,---,0.03,VWS V14.01,2013-08-07 00:13:00,
2013-08-06 20:18:00,74.5,70.7,30.00,SE,135,0.0,0.0,88,0.01,,---,0.03,VWS V14.01,2013-08-07 00:18:00,
2013-08-06 20:23:00,74.3,70.8,30.00,SE,146,0.0,0.0,89,0.01,,---,0.03,VWS V14.01,2013-08-07 00:23:00,
2013-08-06 20:28:00,74.2,70.8,30.00,SE,145,0.0,0.0,89,0.01,,---,0.03,VWS V14.01,2013-08-07 00:28:00,
2013-08-06 20:33:00,74.0,70.6,30.00,SSE,159,0.0,1.0,89,0.01,,---,0.03,VWS V14.01,2013-08-07 00:33:00,
2013-08-06 20:38:00,73.8,70.7,30.00,SSE,165,0.0,1.0,90,0.01,,---,0.03,VWS V14.01,2013-08-07 00:38:00,
2013-08-06 20:43:00,73.7,70.6,30.00,South,173,0.0,1.0,90,0.00,,---,0.03,VWS V14.01,2013-08-07 00:43:00,
2013-08-06 20:48:00,73.6,70.5,30.01,South,169,0.0,1.0,90,0.00,,---,0.03,VWS V14.01,2013-08-07 00:48:00,
2013-08-06 20:53:00,73.5,70.4,30.00,South,175,0.0,2.0,90,0.00,,---,0.03,VWS V14.01,2013-08-07 00:53:00,
2013-08-06 20:58:00,73.3,70.2,30.00,South,169,0.0,1.0,90,0.00,,---,0.03,VWS V14.01,2013-08-07 00:58:00,
2013-08-06 21:03:00,73.1,69.7,30.00,South,184,3.0,3.0,89,0.00,,---,0.03,VWS V14.01,2013-08-07 01:03:00,
2013-08-06 21:08:00,73.1,69.3,30.00,SSE,161,0.0,1.0,88,0.00,,---,0.03,VWS V14.01,2013-08-07 01:08:00,
2013-08-06 21:13:00,73.0,68.9,30.01,SSW,211,0.0,1.0,87,0.00,,---,0.03,VWS V14.01,2013-08-07 01:13:00,
2013-08-06 21:18:00,72.9,68.8,30.01,SE,135,0.0,0.0,87,0.00,,---,0.03,VWS V14.01,2013-08-07 01:18:00,
2013-08-06 21:23:00,72.9,68.5,30.01,East,80,0.0,4.0,86,0.00,,---,0.03,VWS V14.01,2013-08-07 01:23:00,
2013-08-06 21:28:00,72.9,68.5,30.01,East,89,0.0,1.0,86,0.00,,---,0.03,VWS V14.01,2013-08-07 01:28:00,
2013-08-06 21:33:00,72.9,68.5,30.01,SSE,160,0.0,2.0,86,0.00,,---,0.03,VWS V14.01,2013-08-07 01:33:00,
2013-08-06 21:38:00,72.9,68.1,30.02,South,189,0.0,2.0,85,0.00,,---,0.03,VWS V14.01,2013-08-07 01:38:00,
2013-08-06 21:43:00,72.9,68.1,30.02,South,190,0.0,0.0,85,0.00,,---,0.03,VWS V14.01,2013-08-07 01:43:00,
2013-08-06 21:48:00,72.9,68.1,30.02,SSE,150,0.0,1.0,85,0.00,,---,0.03,VWS V14.01,2013-08-07 01:48:00,
2013-08-06 21:53:00,72.9,68.5,30.02,SSE,150,0.0,0.0,86,0.00,,---,0.03,VWS V14.01,2013-08-07 01:53:00,
2013-08-06 21:58:00,72.7,68.3,30.02,SSE,150,1.0,1.0,86,0.00,,---,0.03,VWS V14.01,2013-08-07 01:58:00,
2013-08-06 22:03:00,72.6,68.2,30.02,SSE,149,0.0,0.0,86,0.00,,---,0.03,VWS V14.01,2013-08-07 02:03:00,
2013-08-06 22:08:00,72.6,68.2,30.02,South,191,0.0,0.0,86,0.00,,---,0.03,VWS V14.01,2013-08-07 02:08:00,
2013-08-06 22:13:00,72.4,68.0,30.02,SSE,167,0.0,1.0,86,0.00,,---,0.03,VWS V14.01,2013-08-07 02:13:00,
2013-08-06 22:18:00,72.3,67.9,30.02,SSE,155,0.0,1.0,86,0.00,,---,0.03,VWS V14.01,2013-08-07 02:18:00,
2013-08-06 22:23:00,72.2,67.8,30.02,SSE,150,0.0,2.0,86,0.00,,---,0.03,VWS V14.01,2013-08-07 02:23:00,
2013-08-06 22:28:00,72.1,67.7,30.02,SSE,150,0.0,0.0,86,0.00,,---,0.03,VWS V14.01,2013-08-07 02:28:00,
2013-08-06 22:33:00,72.0,67.9,30.03,ENE,69,0.0,2.0,87,0.00,,---,0.03,VWS V14.01,2013-08-07 02:33:00,
2013-08-06 22:38:00,71.9,67.8,30.02,East,80,0.0,0.0,87,0.00,,---,0.03,VWS V14.01,2013-08-07 02:38:00,
2013-08-06 22:43:00,71.7,67.6,30.03,East,79,0.0,1.0,87,0.00,,---,0.03,VWS V14.01,2013-08-07 02:43:00,
2013-08-06 22:48:00,71.7,67.6,30.03,East,83,0.0,1.0,87,0.00,,---,0.03,VWS V14.01,2013-08-07 02:48:00,
2013-08-06 22:53:00,71.7,67.6,30.03,East,83,0.0,0.0,87,0.00,,---,0.03,VWS V14.01,2013-08-07 02:53:00,
2013-08-06 22:58:00,71.7,67.6,30.03,SE,126,0.0,0.0,87,0.00,,---,0.03,VWS V14.01,2013-08-07 02:58:00,
2013-08-06 23:03:00,71.7,68.0,30.03,South,190,0.0,0.0,88,0.00,,---,0.03,VWS V14.01,2013-08-07 03:03:00,
2013-08-06 23:08:00,71.8,68.1,30.03,SSW,198,2.0,2.0,88,0.00,,---,0.03,VWS V14.01,2013-08-07 03:08:00,
2013-08-06 23:13:00,71.7,67.6,30.03,SSE,161,0.0,1.0,87,0.00,,---,0.03,VWS V14.01,2013-08-07 03:13:00,
2013-08-06 23:18:00,71.5,67.4,30.03,SSE,161,0.0,0.0,87,0.00,,---,0.03,VWS V14.01,2013-08-07 03:18:00,
2013-08-06 23:23:00,71.4,67.3,30.02,SSE,161,0.0,0.0,87,0.00,,---,0.03,VWS V14.01,2013-08-07 03:23:00,
2013-08-06 23:28:00,71.2,67.5,30.02,SSW,194,0.0,1.0,88,0.00,,---,0.03,VWS V14.01,2013-08-07 03:28:00,
2013-08-06 23:33:00,71.1,67.4,30.03,SSW,194,0.0,0.0,88,0.00,,---,0.03,VWS V14.01,2013-08-07 03:33:00,
2013-08-06 23:38:00,70.9,67.2,30.03,SSW,194,0.0,0.0,88,0.00,,---,0.03,VWS V14.01,2013-08-07 03:38:00,
2013-08-06 23:43:00,70.8,67.1,30.03,SSW,194,0.0,0.0,88,0.00,,---,0.03,VWS V14.01,2013-08-07 03:43:00,
2013-08-06 23:48:00,70.7,67.3,30.03,SSW,194,0.0,0.0,89,0.00,,---,0.03,VWS V14.01,2013-08-07 03:48:00,
2013-08-06 23:53:00,70.6,67.2,30.03,SSW,194,0.0,0.0,89,0.00,,---,0.03,VWS V14.01,2013-08-07 03:53:00,
2013-08-06 23:58:00,70.4,67.0,30.03,SSW,194,0.0,0.0,89,0.00,,---,0.03,VWS V14.01,2013-08-07 03:58:00,